www.pogodaiklimat.ru

ПОГОДА в Блайте, CA

  • Прогноз погоды в Блайте
  • Монитор погоды в Блайте
  • Климат в Блайте

АРХИВ ПОГОДЫ в Блайте

Время (UTC), дата Ветер
(напр.,м/с)
 
Видим.   Явления Облачность Т
(С)
Тd
(С)
f
(%)
Тe
(С)
Тes
(С)
Комфортность

P
(гПа)

Po
(гПа)
Тmin
(С)
Tmax
(С)
R
(мм)
SD
(см)
14:52 24.03 С  16 км    ясно  +18.3  +1.7  33  +18  +18    1019.8  1005.6         
15:52 24.03 СЗ  16 км    ясно  +20.0  +1.1  28  +20  +24    1020.4  1006.3         
16:52 24.03 нст  16 км    ясно  +21.1  +0.6  26  +21  +28  комфорт  1020.6  1006.3  +11.7  +21.1     
17:52 24.03 нст  16 км    ясно  +22.2  0.0  23  +22  +36  комфорт  1020.4  1006.3         
18:52 24.03 З  16 км    ясно  +22.8  +0.6  23  +22  +39  комфорт  1020.1  1006.0         
19:52 24.03 З  16 км    ясно  +23.9  -0.6  20  +23  +37  комфорт  1019.3  1005.0         
20:52 24.03   16 км    ясно  +24.4  -1.7  18  +23  +42  комфорт  1018.7  1004.6         
21:52 24.03 нст  16 км    ясно  +25.6  -2.2  16  +24  +33  комфорт  1018.2  1004.0         
22:52 24.03 нст  16 км    ясно  +25.6  +1.1  20  +24  +30  комфорт  1018.0  1004.0  +21.1  +26.7     
23:52 24.03 Ю  16 км    ясно  +24.4  0.0  20  +23  +26  комфорт  1018.0  1003.6         
00:52 25.03 В  16 км    ясно  +23.3  +1.7  24  +23  +23  комфорт  1018.1  1004.0         
06:52 25.03 С  16 км    ясно  +13.9  -0.6  37  +13  +13    1019.4  1005.3         
07:52 25.03   16 км    ясно  +13.3  -1.1  37  +13  +13    1019.1  1005.0         
08:52 25.03 ЮЗ  16 км    ясно  +14.4  -1.1  34  +14  +14    1018.8  1004.6         
09:52 25.03   16 км    ясно  +12.8  -1.7  37  +13  +13    1018.7  1004.3         
10:52 25.03 С  16 км    ясно  +10.0  -1.7  44  +9  +9    1018.5  1004.3  +9.4  +16.1     
11:52 25.03 СЗ  16 км    ясно  +10.0  -1.1  46  +9  +9    1018.7  1004.3         
12:52 25.03 З  16 км    ясно  +11.1  -0.6  44  +10  +10    1019.3  1005.0         
13:52 25.03   16 км    ясно  +13.9  -1.7  34  +14  +14    1019.8  1005.6         
14:52 25.03 ЮЗ  16 км    ясно  +16.7  -0.6  31  +17  +20    1020.3  1006.0         
15:52 25.03   16 км    ясно  +19.4  -0.6  26  +19  +27    1020.3  1006.0         
16:52 25.03 Ю  16 км    ясно  +22.2  0.0  23  +22  +32  комфорт  1019.9  1005.6  +9.4  +22.2     
17:52 25.03   16 км    н/о  +25.6  +1.1  20  +24  +24  комфорт  1019.1  1005.0         
18:52 25.03 ЮВ  16 км    ясно  +26.7  -2.2  15  +24  +37  комфорт  1018.3  1004.0         
19:52 25.03 Ю  16 км    н/о  +27.2  -3.9  13  +24  +24  комфорт  1017.2  1003.0         
00:52 26.03 ЮВ  16 км    ясно  +25.6  -6.1  12  +23  +24  комфорт  1014.3  1000.3         
01:52 26.03   16 км    ясно  +23.9  -5.6  14  +22  +22  комфорт  1014.5  1000.3         
02:52 26.03 С  16 км    ясно  +20.0  -6.7  16  +20  +20    1014.7  1000.6         
03:52 26.03 С  16 км    ясно  +18.3  -6.7  18  +18  +18    1015.0  1001.0         
04:52 26.03 Ю  16 км    ясно  +19.4  -7.2  16  +20  +20    1014.9  1000.6  +17.8  +28.3     
05:52 26.03   16 км    ясно  +20.0  -7.8  15  +19  +19    1014.6  1000.6         
06:52 26.03 СЗ  16 км    ясно  +14.4  -5.6  25  +14  +14    1014.6  1000.6         
07:52 26.03 С  16 км    ясно  +13.9  -6.1  24  +13  +13    1014.2  1000.0         
08:52 26.03 С  16 км    ясно  +12.8  -5.6  27  +12  +12    1013.5  999.3         
09:52 26.03 СЗ  16 км    ясно  +13.3  -5.6  26  +13  +13    1013.3  999.3         
10:52 26.03 С  16 км    ясно  +11.7  -5.6  29  +12  +12    1012.9  998.6  +11.1  +20.6     
11:52 26.03 ЮЗ  16 км    ясно  +12.8  -3.9  31  +12  +12    1013.2  999.0         
12:53 26.03   н/о    н/о  +11.1  -5.0  32  +11  +11    1013.7  999.6         
13:52 26.03 ЮЗ  16 км    ясно  +15.6  -3.3  27  +15  +15    1014.2  1000.0         
14:52 26.03 ЮЗ  16 км    ясно  +18.9  -3.3  22  +19  +21    1014.3  1000.3         
15:52 26.03   16 км    ясно  +21.1  -3.9  18  +20  +28    1014.4  1000.3         
16:52 26.03   16 км    ясно  +23.3  -3.9  16  +21  +35  комфорт  1014.4  1000.3  +10.0  +23.3     
17:52 26.03   16 км    ясно  +25.6  -4.4  13  +23  +41  комфорт  1014.2  1000.3         
18:52 26.03 нст  16 км    ясно  +27.8  -1.1  15  +25  +42  комфорт  1013.6  999.6         
19:52 26.03 ЮВ  16 км    ясно  +27.8  -3.9  12  +25  +38  комфорт  1012.7  998.6         
20:52 26.03 нст  16 км    ясно  +29.4  -3.9  11  +26  +38  жарко  1011.9  998.0         
21:52 26.03 нст  16 км    ясно  +29.4  -2.2  13  +26  +38  жарко  1011.2  997.3         
22:52 26.03 ЮВ  16 км    ясно  +29.4  -1.1  14  +27  +32  жарко  1010.8  996.6  +23.3  +30.0     

 

Местоположение метеостанции Blythe Airport: широта 33.6192 долгота -114.7169 высота над уровнем моря 121 м.

В архиве по умолчанию представлена погода в Блайте за последние 1-2 суток. Обновление информации о фактической погоде в базе происходит ежечасно! Архивные данные за месяц целиком и за предыдущие месяцы Вы можете получить, выбрав интересующий диапазон дат из раскрывающегося списка и нажав кнопку "Ввод!".

Внимание! Архив погоды МЕТАР в базе сайта хранится не более 60 дней. Нет смысла пытаться выбрать более раннюю дату.

Внимание! Время в таблицах - всемирное. Для получения местного времени необходимо прибавить поправку, которая в Блайте равна -8 ч.

Ветер - указаны скорость ветра в м/с и направление, откуда дует ветер: С - северный, СВ - северо-восточный, В - восточный, ЮВ - юго-восточный, Ю - южный, ЮЗ - юго-западный, З - западный, СЗ - северо-западный.
Видимость - горизонтальная дальность видимости в метрах или километрах. При видимости от 1 до 10 км при отсутствии осадков обычно наблюдается дымка, при ухудшении видимости до 1 км и менее - туман. В сухую погоду видимость может ухудшаться дымом, пылью или мглою.
Атмосферные явления - указаны явления, наблюдавшиеся в указанный момент времени.
Облачность - указаны через наклонную черту верхняя и нижняя облачность в баллах и высота нижней границы облаков в метрах. Внимание: облачность, как и прочие метеорологические величины в США измеряются автоматическими метеостанциями. Указанные значения в баллах носят условный характер и показывают процент времени, в течение которого, в среднем, лазерный луч высотомера отражался от облаков обратно.
T - Температура воздуха - температура, измеренная на высоте 2 м над землей.
Td - Температура точки росы - температура, при понижении до которой содержащийся в воздухе водяной пар достигнет насыщения.
f - Относительная влажность воздуха - влажноcть воздуха, измеренная на высоте 2 м над землей.
Te - Эффективная температура - температура, которую ощущает одетый по сезону человек в тени. Характеристика душности погоды. При расчете учитывается влияние влажности воздуха и скорости ветра на теплоощущения человека.
Tes - Эффективная температура на солнце - температура, которую ощущает человек, с поправкой на солнечный нагрев. Характеристика знойности погоды. Зависит от высоты солнца над горизонтом, облачности и скорости ветра. Ночью, в пасмурную погоду, а также при ветре 12 м/с и более поправка равна нулю.
P - Атмосферное давление - приведенное к уровню моря атмосферное давление.
Po - Атмосферное давление - измеренное на уровне метеостанции атмосферное давление.
Tmin - Минимальная температура - минимум температуры воздуха на высоте 2 м над землей.
Tmax - Максимальная температура - максимум температуры воздуха на высоте 2 м над землей.
R - Количество осадков - Количество выпавших осадков за 3 или 6 часов, мм.
SD - Снежный покров - Высота снежного покрова, см.